ORBCOMM FM 38

Satellite information

Favourite Embed

Satellite Type and Status

PAYLOADIN ORBIT

Key statistics

Satellite ORBCOMM FM 38 at a glance.

Uptime

6228

Days in orbit

Revolutions

≈ 14.8

Per day

Orbit

LEO

Low Earth Orbit

Inclination

48.4

Latest

Satellite identification and parameters

Extended collection of information and parameters for ORBCOMM FM 38.

Object identification

Identified? True

Debris? False

Object name: ORBCOMM FM 38

International designator: 2008-031A

Object number (NORAD): 33060

Object ID (CCSDS): 33060

Country: ORBITAL TELECOMMUNICATIONS SATELLITE (GLOBALSTAR) (ORB)

Current information (Y/N): Y

RCS size: LARGE

Orbital parameters

Period: 97.207 minutes

Inclination: 48.4392 deg

SMA: 7003.119 km

Apoapsis: 627.921 km

Periapsis: 622.046 km

RAAN: 217.0819 deg

Eccentricy: 0.0004195

Argument of periapsis: 133.0576 deg

Mean anomaly: 227.0691 deg

Mean motion: 14.8137679 rev/day

Mean motion (dot): 0.00000899 rev/day2

B* drag term: 0.00014104 1/REarth

Two-line elements (TLE)

Creation date: July 8, 2025, 2:27 a.m.

Reference frame: TEME

Reference center: EARTH

Epoch: July 7, 2025, 6:50 p.m. UTC

TLE line 0: 0 ORBCOMM FM 38

TLE line 1: 1 33060U 08031A 25188.78495194 .00000899 00000-0 14104-3 0 9994

TLE line 2: 2 33060 48.4392 217.0819 0004195 133.0576 227.0691 14.81376790917804

Live tracking on map

Real-time ground track for satellite ORBCOMM FM 38.

In-orbit conjunctions

There are no conjunctions computed for ORBCOMM FM 38, at the moment. Check back to stay up to date, as we update our databases every day.

Go to all conjunctions

Associated space launch

LEO communications satellites

ORBCOMM FM 38 was lifted into orbit during the mission ‘Kosmos-3M | Orbcomm FM 37 to 41 & CDS 3’, on board a Kosmos-3M space rocket.

The launch took place on June 19, 2008, 6:36 a.m. from 107.

For more information about the launch, click the button.

Launch to space Kosmos-3M | Orbcomm FM 37 to 41 & CDS 3
Kosmos-3M | Orbcomm FM 37 to 41 & CDS 3

Agency: N/A

Status: Launch Successful

Launch date: June 19, 2008, 6:36 a.m. UTC

Rocket: Kosmos-3M

Launch pad: 107

Location: Kapustin Yar, Russian Federation

...

Latest news about this satellite

There are no fresh news available about this satellite. Check back as we update our databases every day.


Newsletter sign-up

Weekly statistics, charts and insights to help you stay on top of the space industry.